This demonstration page uses our WeatherBlox Daily Observations layout. Learn more.

Left ArrowRight Arrow

38.88101, -77.10428

Hourly Observations for May 30, 2023

Temp ( °F °C ) Dew Point ( °F °C ) Humidity (%) Winds ( mph kmh ) Pressure ( in mb ) Visibility ( mi km ) Precip ( " mm )
12:28 am 00:28 Cloudy with Rain 62 16.7 59 15 90 90 ENE 13 20 30.09 1019 6 10 0.05 1.27
12:48 am 00:48 Cloudy with Light Rain 63 17 57 14 82 82 NE 10 17 30.10 1019 10 16 0.05 1.27
12:52 am 00:52 Cloudy with Light Rain 62 16.7 58 14.4 86 86 ENE 12 19 30.09 1019 10 16 0.05 1.27
1:52 am 01:52 Cloudy with Light Rain 60 15.6 57 13.9 90 90 ENE 10 17 30.09 1019 6 10 0.02 0.51
2:52 am 02:52 Cloudy 60 15.6 57 13.9 90 90 ENE 8 13 30.08 1019 9 14 0.03 0.76
2:59 am 02:59 Cloudy 60 15.6 57 13.9 90 90 ENE 9 15 30.08 1019 9 14 0.00 0.00
3:52 am 03:52 Cloudy 60 15.6 56 13.3 86 86 N 7 11 30.08 1019 10 16 0.00 0.00
3:56 am 03:56 Cloudy 60 15.6 56 13.3 86 86 NNE 8 13 30.08 1019 10 16 0.00 0.00
4:52 am 04:52 Cloudy 60 15.6 55 12.8 83 83 NNE 7 11 30.09 1019 10 16 0.00 0.00
5:26 am 05:26 Mostly Cloudy 60 15.6 54 12.2 80 80 NNE 9 15 30.10 1019 10 16 0.00 0.00
5:52 am 05:52 Mostly Cloudy 60 15.6 54 12.2 80 80 NNE 10 17 30.10 1019 10 16 0.00 0.00
6:19 am 06:19 Mostly Cloudy 59 15 53 11.7 81 81 NNE 10 17 30.12 1020 10 16 0.00 0.00
6:52 am 06:52 Cloudy 60 15.6 54 12.2 80 80 NE 13 20 30.13 1020 10 16 0.00 0.00
7:52 am 07:52 Cloudy 60 15.6 55 12.8 83 83 NNE 10 17 30.14 1021 10 16 0.00 0.00
8:52 am 08:52 Cloudy 61 16.1 56 13.3 83 83 NE 13 20 30.15 1021 10 16 0.00 0.00
9:20 am 09:20 Cloudy 61 16.1 56 13.3 83 83 E 10 17 30.16 1021 10 16 0.00 0.00
9:52 am 09:52 Cloudy 62 16.7 56 13.3 80 80 NNE 9 15 30.16 1021 10 16 0.00 0.00
10:26 am 10:26 Cloudy 63 17.2 57 13.9 81 81 ENE 7 11 30.16 1021 10 16 0.00 0.00
10:52 am 10:52 Cloudy 64 17.8 57 13.9 78 78 NE 9 15 30.16 1021 10 16 0.00 0.00
11:52 am 11:52 Cloudy 67 19.4 57 13.9 71 71 NNE 8 13 30.16 1021 10 16 0.00 0.00
12:32 pm 12:32 Partly Cloudy 70 21.1 59 15 68 68 ENE 8 13 30.17 1022 10 16 0.00 0.00
12:52 pm 12:52 Partly Cloudy 71 21.7 58 14.4 63 63 NE 9 15 30.16 1021 10 16 0.00 0.00
1:52 pm 13:52 Partly Cloudy 74 23.3 57 13.9 56 56 NE 8 13 30.15 1021 10 16 0.00 0.00
2:52 pm 14:52 Partly Cloudy 75 23.9 57 13.9 54 54 ENE 15 24 30.13 1020 10 16 0.00 0.00
3:52 pm 15:52 Mostly Cloudy 75 23.9 58 14.4 55 55 NE 13 20 30.12 1020 10 16 0.00 0.00
4:52 pm 16:52 Mostly Cloudy 75 23.9 56 13.3 51 51 E 10 17 30.12 1020 10 16 0.00 0.00
5:52 pm 17:52 Mostly Cloudy 74 23.3 55 12.8 52 52 E 10 17 30.11 1020 10 16 0.00 0.00
6:52 pm 18:52 Mostly Cloudy 73 22.8 54 12.2 51 51 E 12 19 30.11 1020 10 16 0.00 0.00
7:52 pm 19:52 Mostly Cloudy 70 21.1 50 10 49 49 ESE 7 11 30.13 1020 10 16 0.00 0.00
8:52 pm 20:52 Mostly Cloudy 69 20.6 51 10.6 53 53 ESE 6 9 30.13 1020 10 16 0.00 0.00
9:52 pm 21:52 Mostly Cloudy 66 18.9 52 11.1 61 61 SE 8 13 30.14 1021 10 16 0.00 0.00
10:52 pm 22:52 Mostly Cloudy 65 18.3 54 12.2 68 68 ESE 5 7 30.16 1022 10 16 0.00 0.00
11:52 pm 23:52 Mostly Cloudy 63 17.2 53 11.7 70 70 ESE 5 7 30.18 1022 10 16 0.00 0.00

Powered by AerisWeather